Location: Asbacherhof
(48.8543°N, 10.7903°E)
Time: 00:17:25
(UTC+00:00)

MOS 1 Rocket - Pass Details

Date: 26 May 2022
Orbit: 615 x 828 km, 97.5° (Epoch: 26 June)

Event Time Altitude Azimuth Distance (km) Brightness Sun altitude
Exits shadow 02:23:24 11° 219° (SW) 1,936 4.9 -8.3°
Maximum altitude 02:26:32 21° 268° (W) 1,387 4.5 -7.9°
Drops below altitude 10° 02:29:51 10° 319° (NW) 1,997 5.7 -7.6°
Sets 02:32:32 0° 335° (NNW) 2,926 6.8 -7.2°
